Location: Cheching
(60.0667°N, 164.2167°W)
Time: 22:11:22
(UTC+00:00)

LilacSat-2 - Pass Details

Date: 24 January 2021
Orbit: 512 x 534 km, 97.5° (Epoch: 07 March)

Event Time Altitude Azimuth Distance (km) Brightness Sun altitude
Rises 18:22:39 0° 11° (NNE) 2,690 ? -7.7°
Reaches altitude 10° 18:24:59 10° 359° (N) 1,798 ? -7.4°
Maximum altitude 18:28:15 27° 302° (WNW) 1,068 ? -7.0°
Drops below altitude 10° 18:31:31 10° 244° (WSW) 1,794 ? -6.7°
Sets 18:33:51 0° 232° (SW) 2,682 ? -6.4°
